Regional Weather Roundup
Issued by NWS

Home | Current Version | Previous Version | Text Only | Print | Product List | Glossary On
Versions: 1 2 3 4 5 6 7 8 9 10 11 12 13 14 15 16 17 18 19 20 21 22 23 24 25 26 27 28 29 30 31 32 33 34 35 36 37 38 39 40 41 42 43 44 45 46 47 48 49 50
000
ASUS43 KLMK 212010
RWRKY
KENTUCKY REGIONAL WEATHER ROUNDUP
NATIONAL WEATHER SERVICE LOUISVILLE KY
400 PM EDT THU MAY 21 2015

NOTE "FAIR" INDICATES FEW OR NO CLOUDS BELOW 12,000 FEET
WITH NO SIGNIFICANT WEATHER AND/OR OBSTRUCTIONS TO VISIBILITY.

KYZ001>023-026-027-061>063-070>075-212100-
WESTERN AND SOUTH CENTRAL KENTUCKY

CITY           SKY/WX    TMP DP  RH WIND       PRES   REMARKS
PADUCAH        CLOUDY    60  43  53 NW13      30.18F
HENDERSON      CLOUDY    55  45  67 NW12      30.18S
OWENSBORO      CLOUDY    57  45  64 NW10      30.17S
HOPKINSVILLE   CLOUDY    56  46  67 NW9       30.16F
BOWLING GREEN  CLOUDY    58  47  66 NW8       30.15S
GLASGOW        CLOUDY    55  47  74 NW8       30.13F
$$

KYZ024-025-028>034-038-045-046-053-212100-
NORTH CENTRAL KENTUCKY

CITY           SKY/WX    TMP DP  RH WIND       PRES   REMARKS
LOUISVILLE/SDF CLOUDY    59  44  57 NW15      30.12S
LOUISVILLE/LOU CLOUDY    58  43  57 NW12      30.13R
FORT KNOX      CLOUDY    54  46  76 W13       30.12R
$$

KYZ035>037-039>044-047>052-055>060-089>105-212100-
NORTHEAST KENTUCKY

CITY           SKY/WX    TMP DP  RH WIND       PRES   REMARKS
LEXINGTON      CLOUDY    52  47  83 NW10G17   30.09S
COVINGTON      CLOUDY    56  40  55 NW13      30.09R
FRANKFORT      CLOUDY    55  43  63 N10       30.09R
$$

KYZ054-064>069-076>088-106>120-212100-
SOUTHEAST KENTUCKY

CITY           SKY/WX    TMP DP  RH WIND       PRES   REMARKS
JACKSON        CLOUDY    52  49  89 VRB5      30.05S FOG
LONDON         CLOUDY    55  47  74 NW14      30.07R
SOMERSET       CLOUDY    55  48  76 NW6       30.10S
MIDDLESBORO    CLOUDY    58  51  75 CALM      30.05F
MONTICELLO     CLOUDY    55  51  86 W10       30.13R
$$



USA.gov is the U.S. government's official web portal to all federal, state and local government web resources and services.